STARLINK-11470, 62062

Orbit data source: Space-Track

STARLINK-11470, 62062 is a payload satellite owned by SpaceX/Seattle (US) in LEO that was launched on Sun, 24 Nov 2024 UTC via an FALCON 9 launch vehicle from the Air Force Western Test Range (AFWTR). Payload-class satellites include a variety of spacecraft equipped with specific instruments for various scientific and technological missions. These include communications satellites like Starlink; space stations such as the ISS; scientific satellites like the Hubble; Earth observation satellites from companies like Planet Labs, Umbra, and HawkEye 360; GPS; miniature CubeSats for education and research; and military/defense satellites.

Loading next visibility...
Identifier
62062, 2024-217F
Orbit
LEO
Country
Flag of USUS
Related business
Manufacturer
SpaceX/Seattle
Mission
Operational Commercial Communications
Bus & Motor
STARLINK V2MD, Unknown motor
Mass
960 kg wet, ~910 kg dry
Launch date (UTC)
2024-11-24 (1 year ago)
Launch vehicle
FALCON 9
Launch site
Air Force Western Test Range (AFWTR)
Object type
Payload
Rocket body
Debris
Shape & HBR
Box + 2 Pan, 18.1 m
Radar Cross Section
36.964 m², Large (>1 m²)

Expand to show TLE details & history
Last TLE update: 18 hours ago

TLE from 18 hours ago
0 STARLINK-11470
1 62062U 24217F   26094.92385304  .00155080  00000-0  12607-2 0  9994
2 62062  53.1561 301.9481 0001001 136.1815 223.9282 15.69717979 79232
Epoch: 2026-04-04T22:10Z
TLE epoch observation values (Epoch: 2026-04-04T22:10:20.902Z)
Latitude
-0.00007°
Longitude
136.1243°
Altitude
361.104 km
Speed
7.694 km/s
True Right ascension
20h 07m 47s
True Declination
0° 00' 00"
Sunlit
Object was in daylight at epoch
Visualization orbit readout
Latitude
Unknown
Longitude
Unknown
Altitude
Unknown
Speed
Unknown
Apparent Right ascension
Unknown
Apparent Declination
Unknown
Sunlit
N/A
Visualization observer readout
Local Sidereal Time
21:57:27
Azimuth
Unknown
Elevation
Unknown
Doppler factor
Unknown
Orbital elements
Apogee altitude
360.64 km
Perigee altitude
359.291 km
Semi-major axis
6,738.102 km
Eccentricity
0.0001
Inclination
53.1561°
RAAN
301.9481°
Arg. of periapsis
136.1815°
True anomaly
223.92024°
Mean anomaly
223.9282°
Eccentric anomaly
223.92422°
Mean motion
3.92407 °/min
Orbital period
91.74 mins
BSTAR
0.0012607
Loading maneuver chart data...
Computing Atmospheric mass density...
Loading historical data...
Loading historical data...
Loading historical data...
Loading historical data...
Loading historical data...
Loading historical data...
Loading historical data...

Documentation

Showing up to 5 results
|